This is the latest recevied weather packets stored in our database for station/object KD0RIH. If no packets are shown the sender has not sent any weather packets the latest 10 day(s).
| Time | Temp. | Humidity | Pressure | Rain* | Wind** | Luminosity | Snow |
|---|---|---|---|---|---|---|---|
| 1777736883 | 19.44° C | 27% | 1021.6 hPa | 0 mm | - | 832 W/m² | - |
| 1777736270 | 18.33° C | 28% | 1021.5 hPa | 0 mm | - | 802 W/m² | - |
| 1777735966 | 18.33° C | 28% | 1021.4 hPa | 0 mm | - | 792 W/m² | - |
| 1777735663 | 18.33° C | 28% | 1021.3 hPa | 0 mm | - | 776 W/m² | - |
| 1777735361 | 18.33° C | 29% | 1021.3 hPa | 0 mm | - | 761 W/m² | - |
| 1777735058 | 17.78° C | 31% | 1021.4 hPa | 0 mm | - | 745 W/m² | - |
| 1777734755 | 17.78° C | 32% | 1021.3 hPa | 0 mm | - | 729 W/m² | - |
| 1777734453 | 17.22° C | 33% | 1021.4 hPa | 0 mm | - | 711 W/m² | - |
| 1777734149 | 17.22° C | 37% | 1021.4 hPa | 0 mm | - | 696 W/m² | - |
| 1777733846 | 18.33° C | 34% | 1021.4 hPa | 0 mm | - | 678 W/m² | - |
| 1777733542 | 17.78° C | 36% | 1021.3 hPa | 0 mm | - | 659 W/m² | - |
| 1777733239 | 17.22° C | 39% | 1021.4 hPa | 0 mm | - | 641 W/m² | - |
| 1777732936 | 16.11° C | 39% | 1021.3 hPa | 0 mm | - | 624 W/m² | - |
| 1777732632 | 15.56° C | 43% | 1021.4 hPa | 0 mm | - | 601 W/m² | - |
| 1777732330 | 15.56° C | 42% | 1021.5 hPa | 0 mm | - | 585 W/m² | - |
| 1777732027 | 15° C | 43% | 1021.4 hPa | 0 mm | - | 565 W/m² | - |
| 1777731723 | 13.89° C | 45% | 1021.5 hPa | 0 mm | - | 545 W/m² | - |
| 1777731421 | 12.78° C | 48% | 1021.4 hPa | 0 mm | - | 526 W/m² | - |
| 1777731119 | 13.33° C | 47% | 1021.6 hPa | 0 mm | - | 509 W/m² | - |
| 1777730513 | 11.11° C | 52% | 1021.4 hPa | 0 mm | - | 463 W/m² | - |
| 1777730209 | 12.22° C | 51% | 1021.4 hPa | 0 mm | - | 452 W/m² | - |
| 1777729906 | 12.78° C | 50% | 1021.3 hPa | 0 mm | - | 220 W/m² | - |
| 1777729603 | 13.33° C | 49% | 1021.4 hPa | 0 mm | - | 413 W/m² | - |
| 1777729299 | 12.78° C | 51% | 1021.2 hPa | 0 mm | - | 391 W/m² | - |
| 1777728996 | 12.22° C | 53% | 1021.3 hPa | 0 mm | - | 369 W/m² | - |
* Rain latest hour (hover to see other rain measurements)
** Current wind speed in m/s (hover to see current wind gust speed)